8,
Avoca, PA
on Monday, October 15, 2012

Monday
Previous Day Next Day
Daily Summary
 ActualAverageRecord
Temperature
Mean Temperature °F 51°F  
Max Temperature 67°F 61°F 81°F (1947)
Min Temperature 50°F 41°F 29°F (2006)
Degree Days
Heating Degree Days 6 14  
Month to date heating degree days 165 175  
Since 1 July heating degree days 282 337  
Cooling Degree Days 0 0  
Month to date cooling degree days 3 0  
Year to date cooling degree days 864 576  
Growing Degree Days10 (Base °F )  
Moisture
Dew Point 53°F   
Average Humidity 79    
Maximum Humidity 97    
Minimum Humidity 60    
Precipitation
Precipitation 0.07 in 0.11 in 2.62 in (2014)
Month to date precipitation 1.13 1.73  
Year to date precipitation 28.48 30.83  
Wind
Wind Speed 6 mph   
Max Wind Speed 15 mph   
Max Gust Speed 20 mph   
Visibility 9 miles   
Events Rain   

Key: T is trace of precipitation, MM is missing value
Source: NWS Daily Summary
Time(EDT)TemperatureDew PointHumidity Pressure Visibility Wind DirectionWind SpeedGust SpeedPrecipitationEvents Conditions
12:54 AM 60.1°F 50.0°F 69% 29.86 in 10.0 miles SW 9.2 mph 16.1 mph N/A   Clear
1:54 AM 61.0°F 51.1°F 70% 29.81 in 10.0 miles Variable 3.5 mph - N/A   Clear
2:54 AM 61.0°F 52.0°F 72% 29.78 in 10.0 miles South 8.1 mph - N/A   Clear
3:54 AM 61.0°F 53.1°F 75% 29.75 in 10.0 miles Variable 6.9 mph - N/A   Clear
4:54 AM 61.0°F 54.0°F 78% 29.73 in 10.0 miles South 9.2 mph - 0.00 in   Scattered Clouds
5:54 AM 63.0°F 54.0°F 72% 29.70 in 10.0 miles Variable 4.6 mph - N/A   Mostly Cloudy
6:54 AM 62.1°F 54.0°F 75% 29.70 in 10.0 miles Variable 3.5 mph - N/A   Scattered Clouds
7:35 AM 60.8°F 53.6°F 77% 29.71 in 10.0 miles Calm Calm - N/A   Mostly Cloudy
7:54 AM 60.1°F 54.0°F 80% 29.70 in 10.0 miles Calm Calm - N/A   Mostly Cloudy
8:14 AM 60.8°F 55.4°F 82% 29.72 in 10.0 miles Calm Calm - N/A   Mostly Cloudy
8:51 AM 64.4°F 55.4°F 73% 29.72 in 10.0 miles WSW 8.1 mph - N/A   Mostly Cloudy
8:54 AM 64.0°F 55.9°F 75% 29.71 in 10.0 miles SW 6.9 mph - N/A   Mostly Cloudy
9:05 AM 64.4°F 55.4°F 73% 29.72 in 10.0 miles SW 10.4 mph - N/A   Overcast
9:54 AM 66.0°F 55.9°F 70% 29.70 in 10.0 miles SW 9.2 mph - N/A   Overcast
10:54 AM 64.9°F 55.9°F 73% 29.70 in 10.0 miles SW 9.2 mph 17.3 mph 0.00 in Rain Light Rain
11:06 AM 64.4°F 55.4°F 73% 29.71 in 8.0 miles SW 9.2 mph - 0.00 in Rain Light Rain
11:23 AM 62.6°F 57.2°F 82% 29.72 in 4.0 miles SW 10.4 mph 17.3 mph 0.01 in Rain Light Rain
11:39 AM 62.6°F 57.2°F 82% 29.72 in 2.0 miles SW 6.9 mph - 0.04 in Rain Rain
11:51 AM 60.8°F 59.0°F 94% 29.71 in 3.0 miles SSW 3.5 mph - 0.05 in Rain Rain
11:52 AM 61.0°F 59.0°F 93% 29.70 in 3.0 miles Variable 3.5 mph - 0.05 in Rain Rain
12:54 PM 64.0°F 57.9°F 80% 29.68 in 10.0 miles SW 10.4 mph - 0.02 in   Mostly Cloudy
1:31 PM 64.4°F 55.4°F 73% 29.68 in 10.0 miles SW 9.2 mph 16.1 mph 0.00 in   Mostly Cloudy
1:54 PM 64.9°F 55.9°F 73% 29.65 in 10.0 miles SW 9.2 mph - 0.00 in   Mostly Cloudy
2:34 PM 64.4°F 55.4°F 73% 29.67 in 10.0 miles SW 8.1 mph - 0.00 in Rain Light Rain
2:54 PM 63.0°F 57.0°F 81% 29.66 in 9.0 miles WSW 11.5 mph 17.3 mph 0.00 in Rain Light Rain
3:54 PM 62.1°F 55.0°F 78% 29.65 in 10.0 miles SSW 4.6 mph - 0.00 in   Overcast
4:54 PM 62.1°F 51.1°F 67% 29.65 in 10.0 miles WSW 8.1 mph - N/A   Partly Cloudy
5:54 PM 61.0°F 46.9°F 60% 29.65 in 10.0 miles WSW 6.9 mph - N/A   Clear
6:54 PM 59.0°F 46.0°F 62% 29.66 in 10.0 miles SW 6.9 mph - N/A   Partly Cloudy
7:54 PM 57.0°F 46.0°F 67% 29.67 in 10.0 miles SSW 3.5 mph - N/A   Mostly Cloudy
8:54 PM 55.0°F 45.0°F 69% 29.69 in 10.0 miles Calm Calm - N/A   Clear
9:54 PM 55.0°F 42.1°F 62% 29.71 in 10.0 miles NW 6.9 mph - N/A   Clear
10:54 PM 53.1°F 42.1°F 66% 29.73 in 10.0 miles West 5.8 mph - N/A   Scattered Clouds
11:54 PM 51.1°F 42.1°F 71% 29.74 in 10.0 miles SSW 4.6 mph - N/A   Scattered Clouds
Astronomy
Sunrise:07:15 AM (EDT) Moon Rise:07:23 AM (EDT)10/15
Sunset:06:21 PM (EDT) Moon Set:06:18 PM (EDT)10/15
Moon Phase
Oct. 15 Oct. 21 Oct. 29 Nov. 06 Nov. 13

Copyright © 2014 The Weather Underground, Inc.
8,